Location: La Vergne
(36.0160°N, 86.5820°W)
Time: 12:44:27
(UTC-05:00)

Daily predictions for brighter satellites

Satellite Brightness Start Highest point End
(mag) Time Altitude Azimuth Time Altitude Azimuth Time Altitude Azimuth
Cosmos 1980 Rocket 2.2 19:46:13 10° S 19:51:47 62° ESE 19:57:24 10° NNE
USA 267 4.4 19:46:58 10° NNE 19:53:09 47° NW 19:59:20 10° WSW
Cosmos 1110 Rocket 4.2 19:50:21 10° SSW 19:55:36 83° WNW 20:00:56 10° NNE
CZ-2D R/B 3.8 19:54:55 10° SE 19:58:36 41° ENE 20:02:17 10° N
SL-8 R/B 3.8 19:54:11 10° NW 19:59:01 74° NE 20:03:49 10° ESE
Resurs 1-3 3.9 19:55:32 10° SSE 19:59:45 49° ENE 20:04:00 10° N
Lacrosse 5 4.4 19:56:38 10° WNW 20:00:01 18° WSW 20:03:24 10° SSW
Helios 1B rocket 3.4 19:57:02 10° NE 20:00:27 25° E 20:03:51 10° SSE
Lacrosse 4 Rocket 3.7 19:59:35 10° NE 20:00:30 11° NE 20:01:24 10° ENE
Cosmos 2227 Rocket 3.6 19:55:57 10° NW 20:01:13 41° WSW 20:06:27 10° S
Meteor 1-29 4.5 19:59:55 10° NE 20:02:20 18° E 20:04:43 10° SE
FengYun 1-2 T 4.4 19:58:03 10° SSE 20:03:43 87° WSW 20:09:25 10° NNW
Cosmos 1869 Rocket 4.0 20:01:42 10° N 20:05:59 43° E 20:10:14 10° SSE
Cosmos 1825 4.1 20:05:00 10° NE 20:06:52 13° ENE 20:08:25 11° E
SL-16 R/B 3.1 20:02:23 10° SSE 20:07:01 26° ESE 20:11:39 10° NE
Cosmos 1302 Rocket 4.0 20:01:57 10° S 20:07:03 60° ESE 20:12:09 10° NNE
Envisat 4.0 20:03:15 10° SE 20:07:29 27° ENE 20:11:44 10° NNE
Hubble Space Telescope 3.4 20:08:33 10° SSW 20:08:46 10° SSW 20:09:00 10° SSW
Milstar 3 3.4 20:03:06 10° WSW 20:11:34 48° S 20:17:22 13° ESE
Cosmos 1939 Rocket 4.4 20:09:41 12° ESE 20:12:17 20° ENE 20:15:15 10° NNE
CZ-4B DEB 4.2 20:15:56 15° ESE 20:17:15 20° ENE 20:19:33 10° NNE
ATLAS 5 CENTAUR R/B 4.5 20:17:42 10° NNE 20:19:56 12° NE 20:22:14 10° ENE
GPS 2-04 Rocket1 3.7 20:18:28 10° W 20:21:41 30° SSW 20:24:17 14° SE
SEDSat Delta rocket 4.3 20:19:33 10° SW 20:24:21 34° SSE 20:28:23 16° ESE
OAO 3 Rocket 3.3 20:20:20 10° WSW 20:25:11 66° SSE 20:29:18 15° E
USA 234 3.7 20:20:01 13° ESE 20:25:36 50° NE 20:31:52 10° NW
Resurs 01 Rocket 2.1 20:23:56 10° S 20:28:19 64° WSW 20:32:45 10° NNW
Atlas Centaur 2 3.6 20:22:58 10° SW 20:29:05 31° SSE 20:34:14 16° ESE
Helios 1A 3.2 20:26:48 13° SSE 20:30:28 53° ENE 20:34:38 10° N
SAR-Lupe-4 3.7 20:32:48 18° SSE 20:35:15 55° ENE 20:38:47 10° N
GRACE-1 4.1 20:32:51 10° N 20:35:35 67° W 20:38:17 10° S
Molniya-1 3.9 20:34:06 10° SW 20:35:37 35° NW 20:37:27 10° NNE
GRACE-2 4.1 20:33:16 10° N 20:36:00 67° W 20:38:42 10° S
Cosmos 2227 4.3 20:31:27 10° NNW 20:37:09 64° ENE 20:41:23 18° SE
FALCON 9 R/B 0.2 20:35:06 10° WSW 20:37:37 53° S 20:38:04 42° SE
Cosmos 2142 Rocket 4.4 20:34:48 10° S 20:40:52 72° E 20:47:00 10° N
ERS-1 Rocket 4.0 20:42:11 22° ESE 20:44:08 29° ENE 20:48:25 10° N
Cosmos 1408 2.9 20:45:35 10° N 20:49:08 45° E 20:50:07 36° ESE
Cosmos 1486 Rocket 4.0 20:44:35 10° NNW 20:49:50 85° WSW 20:53:58 17° SSE
Cosmos 1455 3.9 20:47:25 10° SSW 20:50:55 35° W 20:54:25 10° NNW
ERBS 3.4 20:48:51 10° NNW 20:52:01 32° NE 20:52:43 29° ENE
SAR-Lupe-1 3.9 20:50:59 28° SSE 20:52:46 82° ENE 20:56:22 10° N
Cosmos 1869 3.6 20:50:56 10° SSW 20:54:49 66° W 20:58:45 10° N
Cosmos 1992 Rocket 4.0 20:55:48 10° S 21:00:55 58° ESE 21:06:04 10° NNE
Cosmos 220 Rocket 4.1 20:56:36 10° N 21:01:02 62° ENE 21:02:28 39° SE
SeaSat 1 3.9 21:00:11 20° ENE 21:01:22 22° NE 21:05:06 10° N
OTV 4 2.2 21:01:07 10° W 21:03:10 21° SW 21:03:10 21° SW
CZ-3B DEB 2.8 21:01:47 10° WNW 21:03:59 16° WSW 21:04:59 13° SW
USA 229 DEB 4.5 21:04:47 27° E 21:04:47 27° E 21:09:45 10° NE
Cosmos 2026 Rocket 3.9 20:59:12 10° N 21:05:28 82° E 21:09:53 20° S
USA 186 4.2 21:11:13 10° SW 21:12:54 16° W 21:14:39 10° NW
Cosmos 1933 3.2 21:14:41 58° SSE 21:15:19 71° E 21:19:20 10° NNE
DELTA 2 R/B (1) 3.9 21:11:39 10° WNW 21:17:06 53° SSW 21:18:45 39° SSE
YAOGAN 6 2.5 21:20:14 78° ENE 21:20:14 78° ENE 21:23:50 10° N
Cosmos 1503 Rocket 3.9 21:15:43 10° NNW 21:21:00 88° WSW 21:22:48 42° SSE
Cosmos 2263 Rocket 2.4 21:17:58 10° N 21:23:24 50° ENE 21:24:23 44° E
H-2A R/B 3.5 21:24:03 21° ENE 21:24:03 21° ENE 21:27:16 10° NNE
Cosmos 2322 Rocket 2.6 21:18:14 10° SSW 21:23:46 62° WNW 21:29:20 10° NNE
Cosmos 1354 Rocket 4.0 21:19:03 10° NNW 21:24:21 81° WSW 21:26:10 42° S
Terra 4.2 21:26:53 11° NE 21:26:53 11° NE 21:27:19 10° NE
Cosmos 1655 Rocket 4.0 21:20:51 10° N 21:27:16 83° W 21:30:51 28° S
Meteor 2-10 Rocket 3.7 21:30:49 45° SSE 21:32:33 69° E 21:38:20 10° NNE
Cosmos 1733 Rocket 3.2 21:29:10 10° NNW 21:33:36 69° W 21:34:27 54° SSW
Cosmos 2360 Rocket 2.1 21:34:16 57° SE 21:34:46 60° ESE 21:40:22 10° NNE
Cosmos 1862 Rocket 4.1 21:34:03 29° SSW 21:36:07 58° W 21:40:31 10° N
Lacrosse 4 Rocket 1.5 21:35:21 10° NNW 21:39:39 76° WSW 21:39:39 76° WSW
Cosmos 2322 3.8 21:40:40 55° E 21:40:40 55° E 21:45:47 10° NNE
Cosmos 1825 3.7 21:39:09 10° NNW 21:42:32 31° W 21:43:21 28° WSW
NOAA 11 4.1 21:42:48 66° SE 21:43:31 77° ENE 21:49:01 10° N
Cosmos 1862 4.0 21:40:02 10° NNW 21:43:56 50° W 21:44:08 49° WSW
Cosmos 968 Rocket 4.0 21:41:52 10° N 21:46:23 44° NE 21:46:23 44° NE
YAOGAN 11 4.3 21:50:12 65° N 21:50:12 65° N 21:53:57 10° NNW
SL-16 R/B 3.6 21:45:40 10° SW 21:50:52 37° WNW 21:56:08 10° N
Cosmos 2266 Rocket 3.9 21:47:01 10° N 21:53:16 67° E 21:53:45 65° ESE
SPOT 5 3.0 21:54:50 68° NNE 21:54:50 68° NNE 21:59:05 10° N
Centaur AC-42 4.3 21:45:55 10° WSW 21:56:06 22° SSW 21:57:12 21° SSW
MetOp-B 4.2 22:03:13 70° WSW 22:03:26 71° WSW 22:08:47 10° NNW
ATLAS 5 CENTAUR R/B 2.6 21:59:48 10° NNW 22:05:48 58° NE 22:05:54 58° ENE
BREEZE-M DEB (TANK) 4.2 21:48:59 10° NW 22:06:42 77° SW 22:07:32 67° SSE
Meteor 1-26 Rocket 4.4 22:06:23 57° SW 22:07:21 68° W 22:13:05 10° N
Nimbus 7 Rocket 4.3 22:01:53 10° NNE 22:07:50 89° W 22:08:11 80° SSW
USA 234 3.9 22:07:21 39° SSW 22:08:35 43° SW 22:14:46 10° WNW
OAO 3 Rocket 4.1 22:03:45 10° W 22:07:08 44° W 22:07:08 44° W
SPOT 1/Viking Rocket 3.9 22:11:28 59° NNE 22:11:28 59° NNE 22:15:47 10° N
ARGOS 3.2 22:11:51 75° WNW 22:11:51 75° WNW 22:16:52 10° NNW
Cosmos 2278 Rocket 4.5 22:12:31 10° NNE 22:14:18 12° NE 22:14:18 12° NE
Cosmos 489 Rocket 4.4 22:10:05 10° NNW 22:16:27 81° WSW 22:16:36 80° SW
Atlas Centaur 2 3.3 22:10:42 10° WSW 22:16:54 50° SSW 22:16:54 50° SSW
MOS 1-B Rocket 4.1 22:26:13 69° W 22:26:13 69° W 22:31:53 10° NNW
Cosmos 1844 Rocket 4.0 22:22:05 10° N 22:25:44 31° NNE 22:25:44 31° NNE
SeaSat 1 3.7 22:39:58 36° WNW 22:39:58 36° WNW 22:43:19 10° NW
Cosmos 2219 Rocket 4.2 22:45:20 18° NE 22:45:20 18° NE 22:46:41 10° NNE
H-2A R/B 4.3 22:44:20 21° N 22:44:20 21° N 22:45:50 10° N
Milstar 3 4.4 22:48:32 10° WSW 22:50:57 20° WSW 22:50:57 20° WSW
USA 229 DEB 4.3 22:51:55 34° WSW 22:54:40 52° NW 23:01:25 10° NNE
USA 229 4.3 22:52:12 35° WSW 22:54:45 52° NW 23:01:31 10° NNE
H-2A R/B 3.8 23:04:41 28° NW 23:04:41 28° NW 23:07:24 10° NNW
Terra 3.8 23:05:45 25° NNW 23:05:45 25° NNW 23:07:46 10° NNW
COSMOS 2428 4.0 23:05:01 37° N 23:05:01 37° N 23:08:38 10° NNE
Cosmos 2263 Rocket 4.3 23:03:05 10° WNW 23:06:05 18° W 23:06:05 18° W
Cosmos 2333 Rocket 4.1 23:46:51 26° N 23:46:51 26° N 23:49:21 10° NNE
CZ-4C R/B 3.6 23:39:23 10° NNW 23:44:55 46° NNE 23:44:55 46° NNE
Cosmos 2237 Rocket 4.2 23:56:36 23° N 23:56:36 23° N 23:58:38 10° NNE
